User: anonymous   Login
Location: SAPM � Hemmingford
(45.0500°N, 73.5833°W)
Time: 01:34:30
(UTC-04:00)
Language:

Cosmos 1674 Rocket - Orbit

View from above orbital plane
View from above orbital plane
View from above satellite
View from above satellite

Ground track
Ground track

The orbit data is extracted from the following two-line orbital elements,

1 15945U 85069B   17268.42125991 +.00000103 +00000-0 +94797-5 0  9994
2 15945 082.5291 039.1435 0018609 314.5619 045.4076 14.83940061714814
Epoch (UTC): 25 September 2017 10:06:36
Eccentricity: 0.0018609
inclination: 82.5291°
perigee height: 604 km
apogee height: 630 km
right ascension of ascending node: 39.1435°
argument of perigee: 314.5619°
revolutions per day: 14.83940061
mean anomaly at epoch: 45.4076°
orbit number at epoch: 71481

The dashed part of the orbit path shows where the satellite is in the earth's shadow,  

DLR